Rhapsody Of The Seas — C6UA2 — position and weather

sailwx.info

Track history (hours):
 
Tides and Currents Weather Stations Pressure Air Temp Water Temp Dewpoint Dewpoint Depression Visibility Wind Speed Wind Dir Waves Ship Positions

Rhapsody Of The Seas

Last reported at 2017-Jun-23 20:31 UTC. Time now 2017-Jun-23 20:29 UTC.
Position N 44°05' E 014°10'.

Type: Passenger vessel. MMSI: 311805000.

Date/timePositionNaut miles runAvg speedWind from/ knotsBaromVisibWave heightAir tempDewpointWater temp
2017-Jun-23 20:31N 44°05' E 014°10'918.0
2017-Jun-23 20:00N 43°58' E 014°18'1918.0
2017-Jun-23 18:56N 43°43' E 014°35'818.1
2017-Jun-23 18:29N 43°36' E 014°41'918.1
2017-Jun-23 17:59N 43°29' E 014°49'918.2
2017-Jun-23 17:29N 43°21' E 014°56'918.2
2017-Jun-23 16:58N 43°14' E 015°04'1018.2
2017-Jun-23 16:26N 43°07' E 015°13'817.8
2017-Jun-23 16:00N 43°02' E 015°21'1018.1
2017-Jun-23 15:28N 42°56' E 015°32'918.2
2017-Jun-23 15:00N 42°51' E 015°42'2218.8
2017-Jun-23 13:49N 42°38' E 016°06'815.6
2017-Jun-23 13:17N 42°33' E 016°14'1218.2
2017-Jun-23 12:38N 42°25' E 016°26'318.3
2017-Jun-23 12:28N 42°23' E 016°29'918.0
2017-Jun-23 11:58N 42°18' E 016°39'817.9
2017-Jun-23 11:30N 42°14' E 016°49'918.0
2017-Jun-23 11:00N 42°09' E 016°59'1018.2
2017-Jun-23 10:26N 42°04' E 017°11'25917.3
2017-Jun-22 19:28N 38°20' E 020°02'  
2017-Jun-17 20:02N 44°39' E 013°33'121.4
2017-Jun-17 20:00N 44°40' E 013°32'1121.5
2017-Jun-17 19:30N 44°49' E 013°24'1121.2
2017-Jun-17 19:00N 44°57' E 013°14'1020.9
2017-Jun-17 18:30N 45°04' E 013°04'1020.9
2017-Jun-17 18:00N 45°11' E 012°52'1120.8
2017-Jun-17 17:30N 45°17' E 012°40'1019.4
2017-Jun-17 17:00N 45°23' E 012°30'511.0
2017-Jun-17 16:31N 45°26' E 012°23'3 5.3
2017-Jun-17 16:00N 45°26' E 012°19'1 1.3
2017-Jun-17 15:26N 45°26' E 012°19'0 0.0
2017-Jun-17 14:56N 45°26' E 012°19'0 0.0
2017-Jun-17 14:29N 45°26' E 012°19'0 0.0
2017-Jun-17 13:26N 45°26' E 012°19'0 0.0
2017-Jun-17 12:59N 45°26' E 012°19'0 0.0
2017-Jun-17 12:20N 45°26' E 012°19'0 0.0
2017-Jun-17 11:56N 45°26' E 012°19'0 0.0
2017-Jun-17 11:29N 45°26' E 012°19'0 0.0
2017-Jun-17 10:59N 45°26' E 012°19'0 0.0
2017-Jun-17 10:26N 45°26' E 012°19'0 0.0
2017-Jun-17 09:59N 45°26' E 012°19'0 0.0
2017-Jun-17 09:29N 45°26' E 012°19'0 0.0
2017-Jun-17 08:59N 45°26' E 012°19'0 0.0
2017-Jun-17 08:29N 45°26' E 012°19'0 0.0
2017-Jun-17 07:56N 45°26' E 012°19'0 0.0
2017-Jun-17 07:29N 45°26' E 012°19'0 0.0
2017-Jun-17 06:59N 45°26' E 012°19'0 0.0
2017-Jun-17 06:29N 45°26' E 012°19'0 0.0
2017-Jun-17 05:59N 45°26' E 012°19'0 0.0
2017-Jun-17 05:29N 45°26' E 012°19'0 0.0
2017-Jun-17 04:56N 45°26' E 012°19'0 0.0
2017-Jun-17 04:30N 45°26' E 012°19'1 2.5
2017-Jun-17 03:58N 45°26' E 012°20'2 5.0
2017-Jun-17 03:31N 45°26' E 012°24'611.4
2017-Jun-17 03:00N 45°23' E 012°31'816.5
2017-Jun-17 02:30N 45°18' E 012°39'816.2
2017-Jun-17 02:00N 45°12' E 012°48'816.3
2017-Jun-17 01:31N 45°08' E 012°58'816.4
2017-Jun-17 01:00N 45°04' E 013°08'816.3
2017-Jun-17 00:30N 44°59' E 013°17'815.3
2017-Jun-17 00:00N 44°53' E 013°24'816.0
2017-Jun-16 23:30N 44°46' E 013°30'816.2
2017-Jun-16 23:00N 44°40' E 013°36'816.3
2017-Jun-16 22:31N 44°33' E 013°43'816.3
2017-Jun-16 22:00N 44°26' E 013°49'816.3
2017-Jun-16 21:30N 44°19' E 013°56'816.2
2017-Jun-16 21:00N 44°13' E 014°02'53612.7
2017-Jun-15 02:43N 37°03' E 021°03'15514.7
2017-Jun-14 16:06N 36°55' E 024°18'217.6
2017-Jun-14 15:58N 36°57' E 024°20'3517.8
2017-Jun-14 14:00N 37°16' E 024°57'918.0
2017-Jun-14 13:30N 37°21' E 025°06'817.1
2017-Jun-14 13:00N 37°27' E 025°13'5 9.9
2017-Jun-14 12:30N 37°27' E 025°19'0 0.2
2017-Jun-14 11:59N 37°27' E 025°19'0 0.0
2017-Jun-14 11:29N 37°27' E 025°19'0 0.0
2017-Jun-14 10:56N 37°27' E 025°19'0 0.1
2017-Jun-14 10:29N 37°27' E 025°19'0 0.0
2017-Jun-14 09:59N 37°27' E 025°19'0 0.0
2017-Jun-14 08:41N 37°27' E 025°19'0 0.0
2017-Jun-14 08:23N 37°27' E 025°19'0 0.0
2017-Jun-14 07:59N 37°27' E 025°19'0 0.0
2017-Jun-14 07:26N 37°27' E 025°19'0 0.0
2017-Jun-14 06:59N 37°27' E 025°19'0 0.0
2017-Jun-14 06:26N 37°27' E 025°19'0 0.0
2017-Jun-14 05:59N 37°27' E 025°19'0 0.0
2017-Jun-14 05:29N 37°27' E 025°19'0 0.1
2017-Jun-14 04:50N 37°27' E 025°19'0 0.1
2017-Jun-14 04:29N 37°27' E 025°19'0 0.0
2017-Jun-14 03:59N 37°27' E 025°19'0 0.0
2017-Jun-14 03:31N 37°27' E 025°19'3 5.4
2017-Jun-14 03:01N 37°28' E 025°16'4 7.2
2017-Jun-14 02:31N 37°29' E 025°12'5 8.6
2017-Jun-14 01:59N 37°30' E 025°06'4 8.6
2017-Jun-14 01:30N 37°32' E 025°01'4 8.5
2017-Jun-14 01:01N 37°33' E 024°56'5 9.1
2017-Jun-14 00:31N 37°33' E 024°50'  
Track history (hours):
 
Tides and Currents Weather Stations Pressure Air Temp Water Temp Dewpoint Dewpoint Depression Visibility Wind Speed Wind Dir Waves Ship Positions

Rhapsody Of The Seas

Last reported at 2017-Jun-23 20:31 UTC. Time now 2017-Jun-23 20:29 UTC.
Position N 44°05' E 014°10'.

Type: Passenger vessel. MMSI: 311805000.

Date/timePositionNaut miles runAvg speedWind from/ knotsBaromVisibWave heightAir tempDewpointWater temp
2017-Jun-23 20:31N 44°05' E 014°10'918.0
2017-Jun-23 20:00N 43°58' E 014°18'1918.0
2017-Jun-23 18:56N 43°43' E 014°35'818.1
2017-Jun-23 18:29N 43°36' E 014°41'918.1
2017-Jun-23 17:59N 43°29' E 014°49'918.2
2017-Jun-23 17:29N 43°21' E 014°56'918.2
2017-Jun-23 16:58N 43°14' E 015°04'1018.2
2017-Jun-23 16:26N 43°07' E 015°13'817.8
2017-Jun-23 16:00N 43°02' E 015°21'1018.1
2017-Jun-23 15:28N 42°56' E 015°32'918.2
2017-Jun-23 15:00N 42°51' E 015°42'2218.8
2017-Jun-23 13:49N 42°38' E 016°06'815.6
2017-Jun-23 13:17N 42°33' E 016°14'1218.2
2017-Jun-23 12:38N 42°25' E 016°26'318.3
2017-Jun-23 12:28N 42°23' E 016°29'918.0
2017-Jun-23 11:58N 42°18' E 016°39'817.9
2017-Jun-23 11:30N 42°14' E 016°49'918.0
2017-Jun-23 11:00N 42°09' E 016°59'1018.2
2017-Jun-23 10:26N 42°04' E 017°11'25917.3
2017-Jun-22 19:28N 38°20' E 020°02'  
2017-Jun-17 20:02N 44°39' E 013°33'121.4
2017-Jun-17 20:00N 44°40' E 013°32'1121.5
2017-Jun-17 19:30N 44°49' E 013°24'1121.2
2017-Jun-17 19:00N 44°57' E 013°14'1020.9
2017-Jun-17 18:30N 45°04' E 013°04'1020.9
2017-Jun-17 18:00N 45°11' E 012°52'1120.8
2017-Jun-17 17:30N 45°17' E 012°40'1019.4
2017-Jun-17 17:00N 45°23' E 012°30'511.0
2017-Jun-17 16:31N 45°26' E 012°23'3 5.3
2017-Jun-17 16:00N 45°26' E 012°19'1 1.3
2017-Jun-17 15:26N 45°26' E 012°19'0 0.0
2017-Jun-17 14:56N 45°26' E 012°19'0 0.0
2017-Jun-17 14:29N 45°26' E 012°19'0 0.0
2017-Jun-17 13:26N 45°26' E 012°19'0 0.0
2017-Jun-17 12:59N 45°26' E 012°19'0 0.0
2017-Jun-17 12:20N 45°26' E 012°19'0 0.0
2017-Jun-17 11:56N 45°26' E 012°19'0 0.0
2017-Jun-17 11:29N 45°26' E 012°19'0 0.0
2017-Jun-17 10:59N 45°26' E 012°19'0 0.0
2017-Jun-17 10:26N 45°26' E 012°19'0 0.0
2017-Jun-17 09:59N 45°26' E 012°19'0 0.0
2017-Jun-17 09:29N 45°26' E 012°19'0 0.0
2017-Jun-17 08:59N 45°26' E 012°19'0 0.0
2017-Jun-17 08:29N 45°26' E 012°19'0 0.0
2017-Jun-17 07:56N 45°26' E 012°19'0 0.0
2017-Jun-17 07:29N 45°26' E 012°19'0 0.0
2017-Jun-17 06:59N 45°26' E 012°19'0 0.0
2017-Jun-17 06:29N 45°26' E 012°19'0 0.0
2017-Jun-17 05:59N 45°26' E 012°19'0 0.0
2017-Jun-17 05:29N 45°26' E 012°19'0 0.0
2017-Jun-17 04:56N 45°26' E 012°19'0 0.0
2017-Jun-17 04:30N 45°26' E 012°19'1 2.5
2017-Jun-17 03:58N 45°26' E 012°20'2 5.0
2017-Jun-17 03:31N 45°26' E 012°24'611.4
2017-Jun-17 03:00N 45°23' E 012°31'816.5
2017-Jun-17 02:30N 45°18' E 012°39'816.2
2017-Jun-17 02:00N 45°12' E 012°48'816.3
2017-Jun-17 01:31N 45°08' E 012°58'816.4
2017-Jun-17 01:00N 45°04' E 013°08'816.3
2017-Jun-17 00:30N 44°59' E 013°17'815.3
2017-Jun-17 00:00N 44°53' E 013°24'816.0
2017-Jun-16 23:30N 44°46' E 013°30'816.2
2017-Jun-16 23:00N 44°40' E 013°36'816.3
2017-Jun-16 22:31N 44°33' E 013°43'816.3
2017-Jun-16 22:00N 44°26' E 013°49'816.3
2017-Jun-16 21:30N 44°19' E 013°56'816.2
2017-Jun-16 21:00N 44°13' E 014°02'53612.7
2017-Jun-15 02:43N 37°03' E 021°03'15514.7
2017-Jun-14 16:06N 36°55' E 024°18'217.6
2017-Jun-14 15:58N 36°57' E 024°20'3517.8
2017-Jun-14 14:00N 37°16' E 024°57'918.0
2017-Jun-14 13:30N 37°21' E 025°06'817.1
2017-Jun-14 13:00N 37°27' E 025°13'5 9.9
2017-Jun-14 12:30N 37°27' E 025°19'0 0.2
2017-Jun-14 11:59N 37°27' E 025°19'0 0.0
2017-Jun-14 11:29N 37°27' E 025°19'0 0.0
2017-Jun-14 10:56N 37°27' E 025°19'0 0.1
2017-Jun-14 10:29N 37°27' E 025°19'0 0.0
2017-Jun-14 09:59N 37°27' E 025°19'0 0.0
2017-Jun-14 08:41N 37°27' E 025°19'0 0.0
2017-Jun-14 08:23N 37°27' E 025°19'0 0.0
2017-Jun-14 07:59N 37°27' E 025°19'0 0.0
2017-Jun-14 07:26N 37°27' E 025°19'0 0.0
2017-Jun-14 06:59N 37°27' E 025°19'0 0.0
2017-Jun-14 06:26N 37°27' E 025°19'0 0.0
2017-Jun-14 05:59N 37°27' E 025°19'0 0.0
2017-Jun-14 05:29N 37°27' E 025°19'0 0.1
2017-Jun-14 04:50N 37°27' E 025°19'0 0.1
2017-Jun-14 04:29N 37°27' E 025°19'0 0.0
2017-Jun-14 03:59N 37°27' E 025°19'0 0.0
2017-Jun-14 03:31N 37°27' E 025°19'3 5.4
2017-Jun-14 03:01N 37°28' E 025°16'4 7.2
2017-Jun-14 02:31N 37°29' E 025°12'5 8.6
2017-Jun-14 01:59N 37°30' E 025°06'4 8.6
2017-Jun-14 01:30N 37°32' E 025°01'4 8.5
2017-Jun-14 01:01N 37°33' E 024°56'5 9.1
2017-Jun-14 00:31N 37°33' E 024°50'  

Dump ship's entire track history